Regional Weather Roundup
Issued by NWS Little Rock, AR

Home | Current Version | Previous Version | Graphics & Text | Print | Product List | Glossary On
Versions: 1 2 3 4 5 6 7 8 9 10 11 12 13 14 15 16 17 18 19 20 21 22 23 24 25 26 27
000
ASUS44 KLZK 260405
RWRLZK

WEATHER ROUNDUP FOR ARKANSAS
NATIONAL WEATHER SERVICE LITTLE ROCK AR
1100 PM CDT THU AUG 25 2016

NOTE: "FAIR" INDICATES FEW OR NO CLOUDS BELOW 12,000 FEET WITH NO
SIGNIFICANT WEATHER AND/OR OBSTRUCTIONS TO VISIBILITY.

ARZ001-003-010-029-260500-
NORTHWEST ARKANSAS

CITY           SKY/WX    TMP DP  RH WIND       PRES   REMARKS
FAYETTEVILLE   CLOUDY    73  68  84 CALM      30.11R
FORT SMITH     CLOUDY    76  68  76 E6        30.08R
HARRISON       CLOUDY    75  70  84 S5        30.13R
BENTONVILLE    CLOUDY    75  64  69 S6        30.11S
ROGERS         CLOUDY    77  69  76 S7        30.11S
SILOAM SPGS    CLOUDY    75  61  60 S6        30.11R
HIGHFILL       CLOUDY    76  68  76 S8        30.10S
$$

ARZ004-005-016-260500-
NORTH CENTRAL ARKANSAS

CITY           SKY/WX    TMP DP  RH WIND       PRES   REMARKS
BATESVILLE     CLOUDY    79  75  89 SE6       30.08S
FLIPPIN        CLOUDY    77  72  83 CALM      30.07R
MTN HOME       CLOUDY    76  75  97 CALM      30.09S
$$

ARZ040-041-260500-
WEST CENTRAL ARKANSAS

CITY           SKY/WX    TMP DP  RH WIND       PRES   REMARKS
MENA           CLOUDY    73  73 100 CALM      30.12R
MOUNT IDA      CLOUDY    77  71  82 SE6       30.08R
$$

ARZ009-017-025-026-028-260500-
NORTHEAST ARKANSAS

CITY           SKY/WX    TMP DP  RH WIND       PRES   REMARKS
CORNING          N/A     79  79 100 S6        30.07S
JONESBORO      CLOUDY    79  74  84 CALM      30.08R
NEWPORT        PTCLDY    81  78  91 SW6       30.09R HX  89
WALNUT RIDGE   CLOUDY    81  75  83 S9        30.07S HX  86
BLYTHEVILLE    MOCLDY    80  76  87 SW5       30.08R HX  86
$$

ARZ022-023-033-042-044-260500-
CENTRAL ARKANSAS

CITY           SKY/WX    TMP DP  RH WIND       PRES   REMARKS
LITTLE ROCK    CLOUDY    78  74  87 S5        30.11R
N LITTLE ROCK    N/A     76  73  93 CALM      30.07R
JACKSONVILLE   CLOUDY    78  78 100 CALM      30.09R
SEARCY         CLOUDY    78  77  96 S3        30.10R
HOT SPRINGS    LGT RAIN  75  72  90 S5        30.13R
RUSSELLVILLE   CLOUDY    74  73  97 E5        30.09R
$$

ARZ036-260500-
EAST ARKANSAS

CITY           SKY/WX    TMP DP  RH WIND       PRES   REMARKS
WEST MEMPHIS   MOCLDY    76  74  93 S5        30.07R
$$

ARZ050-053-066-070-073-260500-
SOUTHWEST ARKANSAS

CITY           SKY/WX    TMP DP  RH WIND       PRES   REMARKS
ARKADELPHIA    LGT RAIN  75  74  96 S5        30.12R
CAMDEN         LGT RAIN  73  72  94 SE6       30.12F
TEXARKANA      LGT RAIN  74  73  97 SE6       30.11R
EL DORADO      LGT RAIN  73  73 100 SE3       30.12F
DE QUEEN       CLOUDY    75  74  96 S3        30.07S
$$

ARZ056-057-069-260500-
SOUTHEAST ARKANSAS

CITY           SKY/WX    TMP DP  RH WIND       PRES   REMARKS
PINE BLUFF     LGT RAIN  74  72  93 SW7       30.10S
STUTTGART      CLOUDY    75  72  88 S7        30.11R
MONTICELLO     LGT RAIN  75  71  87 SW8       30.09F

$$






USA.gov is the U.S. government's official web portal to all federal, state and local government web resources and services.